Terug naar catalogus

CZ-6A R/B

ActiefPO
NORAD 68661·ROCKET BODY·🇨🇳 China

Gelanceerd Apr 8, 2026 vanaf Taiyuan Satellite Launch Center

Loading…

Volgende Passages (komende 24 uur)

TLE

VersSource: Space-Track

Epoch: Sep 14, 2026, 14:42 UTC

1 68661U 26076F   26257.61313975  .00000143  00000-0  68453-4 0  9993
2 68661  86.5142   6.6339 0104161 334.4306  25.1743 14.09409090 22370

Volg CZ-6A R/B in realtime met AllMySat

Download on the App Store